Погода в Шоршелах

Россия / Чувашская Республика     56°00′23″N   47°35′32″E
темп.,
°C
ветер,
м/с
пор.,
м/с
влажн.,
%
обл.,
%
осадки,
мм/ч
давл.,
гПа
погр.,
м
25 февраля, чт
чт2500:00−23юз229599 0.0 103521
03:00−24ююз349496 0.0 103368
06:00−22ю4992100 0.0 1029220
09:00−19ююв61093100 0.1 1026295
12:00−16ююв71295100 1.1 1022496
15:00−14ю71194100 2.3 1019664
18:00−14ююв5995100 1.2 1017494
21:00−15юв5994100 1.6 1016327
26 февраля, пт
пт2600:00−16юв599592 0.1 1015272
03:00−17вюв489689 0.2 1016238
06:00−17вюв489689 0.1 1014221
09:00−16юв489591 0.1 1015267
12:00−14юв6994100 0.0 1013353
15:00−12юв71293100 0.1 1010433
18:00−11юв81594100 0.6 1005447
21:00−9юв81594100 5.3 1000489
27 февраля, сб
сб2700:00−7юв5995100 2.6 997256
03:00−6в2397100 3.4 99778
06:00−4вюв1298100 1.5 99588
09:00−3в2298100 2.6 99596
12:00−3в3498100 1.5 996194
15:00−5всв5696100 2.7 997279
18:00−8св589599 0.5 999319
21:00−11ссв599498 0.8 1001304
28 февраля, вс
вс2800:00−15с499790 0.1 1003201
03:00−13с5109593 0.1 1006349
06:00−15с599594 0.2 1007330
09:00−17с589697 0.2 1009317
12:00−14с5893100 0.1 1011424
15:00−13с5991100 0.1 1012546
18:00−16с4896100 0.0 1014181
21:00−19с479877 0.1 1017108
1 марта, пн
пн100:00−22ссз34996 0.0 101848
03:00−23ссз349917 0.0 102061
06:00−24ссз339935 0.0 102239
09:00−21ссз359733 0.0 1023165
12:00−15сз348930 0.0 1024292
15:00−13з359150 0.0 1023273
18:00−16зюз449411 0.0 102273
21:00−15юз499625 0.0 1021146